Location: *
(43.9905°S, 176.4941°W)
Time: 05:29:09
(UTC+00:00)

Cosmos 1626 - Pass Details

Date: 08 December 2019
Orbit: 492 x 495 km, 82.5° (Epoch: 18 January)

Event Time Altitude Azimuth Distance (km) Brightness Sun altitude
Rises 11:23:50 0° 207° (SSW) 2,625 6.9 -23.2°
Reaches altitude 10° 11:26:40 10° 230° (SW) 1,730 5.4 -23.2°
Maximum altitude 11:28:53 15° 266° (W) 1,431 4.5 -23.3°
Enters shadow 11:28:58 15° 268° (W) 1,431 4.5 -23.3°
